Location: ??????
(30.5519°N, 47.7720°E)
Time: 18:08:10
(UTC+00:00)

Aureole 1 - Pass Details

Date: 24 January 2021
Orbit: 387 x 1563 km, 74.0° (Epoch: 01 March)

Event Time Altitude Azimuth Distance (km) Brightness Sun altitude
Rises 15:08:58 0° 348° (NNW) 2,284 7.9 -11.2°
Reaches altitude 10° 15:10:52 10° 353° (N) 1,457 6.9 -11.6°
Maximum altitude 15:13:55 59° 74° (ENE) 511 4.3 -12.2°
Drops below altitude 10° 15:17:32 10° 155° (SSE) 1,720 7.2 -13.0°
Sets 15:19:57 0° 158° (SSE) 2,759 8.3 -13.5°
